DECAYED

STARLINK-1948, 46798 (Decayed)

Orbit data source: Space-Track

STARLINK-1948, 46798 was a payload satellite owned by SpaceX/Seattle (US) in LEO that was launched on Sat, 24 Oct 2020 UTC via an FALCON 9 launch vehicle from the Air Force Eastern Test Range (AFETR). Payload-class satellites include a variety of spacecraft equipped with specific instruments for various scientific and technological missions. These include communications satellites like Starlink; space stations such as the ISS; scientific satellites like the Hubble; Earth observation satellites from companies like Planet Labs, Umbra, and HawkEye 360; GPS; miniature CubeSats for education and research; and military/defense satellites.

Not visible in the next 10 days
Identifier
46798, 2020-074BM
Orbit
Decayed
Country
Flag of USUS
Related business
Manufacturer
SpaceX/Seattle
Mission
Decayed Commercial Communications
Bus & Motor
STARLINK, Unknown motor
Mass
260 kg wet, ~248 kg dry
Launch date (UTC)
2020-10-24 (6 years ago)
Launch vehicle
FALCON 9
Launch site
Air Force Eastern Test Range (AFETR)
Object type
Payload
Rocket body
Debris
Shape & HBR
Box + 1 Pan, 10.1 m
Radar Cross Section
13.562 m², Large (>1 m²)

Expand to show TLE details & history
Last TLE update: 2 years ago

TLE from 2 years ago
0 STARLINK-1948
1 46798U 20074BM  25040.10043767  .17679982  12638-4  46860-3 0  9996
2 46798  52.9837 267.5416 0012587  47.1342  80.4268 16.44594925237385
Epoch: 2025-02-09T02:24Z
TLE epoch observation values (Epoch: 2025-02-09T02:24:37.814Z)
Latitude
39.31173°
Longitude
-125.92245°
Altitude
155.656 km
Speed
7.819 km/s
True Right ascension
03h 18m 41s
True Declination
39° 07' 40"
Sunlit
Object was in daylight at epoch
Visualization orbit readout
Latitude
Unknown
Longitude
Unknown
Altitude
Unknown
Speed
Unknown
Apparent Right ascension
Unknown
Apparent Declination
Unknown
Sunlit
N/A
Visualization observer readout
Local Sidereal Time
01:28:05
Azimuth
Unknown
Elevation
Unknown
Doppler factor
Unknown
Orbital elements
Apogee altitude
162.128 km
Perigee altitude
145.685 km
Semi-major axis
6,532.043 km
Eccentricity
0.00126
Inclination
52.9837°
RAAN
267.5416°
Arg. of periapsis
47.1342°
True anomaly
80.56906°
Mean anomaly
80.4268°
Eccentric anomaly
80.49793°
Mean motion
4.11121 °/min
Orbital period
87.57 mins
BSTAR
0.0004686
Loading maneuver chart data...
Computing Atmospheric mass density...

Documentation

Showing up to 5 results
|